When you browse on this site, cookies collect data to enhance your experience and personalize the content and advertising you see.
Visit our Privacy Policy to learn more. By continuing to use the site, you agree to this use of cookies and data.
  • In Hungary
  • List of Countries
  • For 7 days
  • Water Temperature
  • Satellite Maps
  • Weather Map
  • News
  • Weather Widgets
  • user-avatar
    Login

    Hourly Weather Lubbecke

    Today, 17 February, Sunday

    Time Temperature Precipitation Wind Pressure Humidity
    00:00 +6°C° 0 mm 2 mps 753 mmHg 82%
    01:00 +6°C° 0 mm 2 mps 754 mmHg 82%
    02:00 +5°C° 0 mm 2 mps 753 mmHg 82%
    03:00 +5°C° 0 mm 2 mps 753 mmHg 83%
    04:00 +5°C° 0 mm 2 mps 753 mmHg 84%
    05:00 +5°C° 0 mm 2 mps 753 mmHg 83%
    06:00 +5°C° 0 mm 2 mps 752 mmHg 83%
    07:00 +5°C° 0 mm 1 mps 752 mmHg 83%
    08:00 +5°C° 0 mm 2 mps 752 mmHg 78%
    09:00 +6°C° 0 mm 2 mps 752 mmHg 73%
    10:00 +7°C° 0 mm 2 mps 752 mmHg 68%
    11:00 +9°C° 0 mm 2 mps 752 mmHg 63%
    12:00 +10°C° 0 mm 2 mps 751 mmHg 58%
    13:00 +12°C° 0 mm 3 mps 751 mmHg 53%
    14:00 +13°C° 0 mm 2 mps 751 mmHg 55%
    15:00 +14°C° 0 mm 2 mps 750 mmHg 56%
    16:00 +14°C° 0 mm 2 mps 750 mmHg 58%
    17:00 +12°C° 0 mm 2 mps 750 mmHg 62%
    18:00 +10°C° 0 mm 2 mps 750 mmHg 66%
    19:00 +8°C° 0 mm 3 mps 750 mmHg 71%
    20:00 +8°C° 0 mm 3 mps 750 mmHg 72%
    21:00 +7°C° 0 mm 3 mps 750 mmHg 74%
    22:00 +7°C° 0 mm 3 mps 750 mmHg 76%
    23:00 +5°C° 0 mm 3 mps 750 mmHg 76%

    Tomorrow, 18 February, Monday

    Time Temperature Precipitation Wind Pressure Humidity
    00:00 +5°C° 0 mm 3 mps 750 mmHg 76%
    01:00 +4°C° 0 mm 3 mps 750 mmHg 76%
    02:00 +4°C° 0 mm 3 mps 750 mmHg 77%
    03:00 +4°C° 0 mm 3 mps 750 mmHg 78%
    04:00 +3°C° 0 mm 3 mps 750 mmHg 79%
    05:00 +3°C° 0 mm 3 mps 750 mmHg 79%
    06:00 +3°C° 0 mm 3 mps 750 mmHg 79%
    07:00 +4°C° 0 mm 2 mps 750 mmHg 79%
    08:00 +4°C° 0 mm 3 mps 750 mmHg 75%
    09:00 +5°C° 0 mm 3 mps 750 mmHg 70%
    10:00 +7°C° 0 mm 3 mps 750 mmHg 66%
    11:00 +9°C° 0 mm 3 mps 749 mmHg 62%
    12:00 +10°C° 0 mm 3 mps 749 mmHg 59%
    13:00 +11°C° 0 mm 3 mps 749 mmHg 55%
    14:00 +12°C° 0 mm 3 mps 749 mmHg 55%
    15:00 +12°C° 0 mm 3 mps 748 mmHg 55%
    16:00 +13°C° 0 mm 2 mps 748 mmHg 55%
    17:00 +12°C° 0 mm 2 mps 748 mmHg 59%
    18:00 +9°C° 0 mm 2 mps 748 mmHg 63%
    19:00 +8°C° 0 mm 2 mps 748 mmHg 67%
    20:00 +7°C° 0 mm 3 mps 748 mmHg 69%
    21:00 +7°C° 0 mm 3 mps 747 mmHg 71%
    22:00 +5°C° 0 mm 4 mps 747 mmHg 73%
    23:00 +5°C° 0 mm 4 mps 747 mmHg 74%

    Day after tomorrow, 19 February, Tuesday

    Time Temperature Precipitation Wind Pressure Humidity
    00:00 +5°C° 0 mm 4 mps 747 mmHg 75%
    01:00 +5°C° 0 mm 4 mps 747 mmHg 76%
    02:00 +5°C° 0 mm 4 mps 747 mmHg 78%
    03:00 +5°C° 0 mm 4 mps 747 mmHg 80%
    04:00 +5°C° 0 mm 5 mps 747 mmHg 82%
    05:00 +5°C° 0.3 mm 4 mps 747 mmHg 86%
    06:00 +5°C° 0.3 mm 4 mps 747 mmHg 89%
    07:00 +5°C° 0.3 mm 4 mps 747 mmHg 92%
    08:00 +5°C° 0.1 mm 5 mps 747 mmHg 90%
    09:00 +5°C° 0.1 mm 5 mps 748 mmHg 88%
    10:00 +5°C° 0.1 mm 6 mps 748 mmHg 86%
    11:00 +5°C° 0 mm 6 mps 748 mmHg 80%
    12:00 +7°C° 0 mm 6 mps 748 mmHg 74%
    13:00 +8°C° 0 mm 6 mps 749 mmHg 67%
    14:00 +8°C° 0 mm 6 mps 749 mmHg 67%
    15:00 +8°C° 0 mm 6 mps 749 mmHg 67%
    16:00 +8°C° 0 mm 6 mps 749 mmHg 66%
    17:00 +7°C° 0.1 mm 5 mps 749 mmHg 72%
    18:00 +6°C° 0.1 mm 4 mps 749 mmHg 78%
    19:00 +5°C° 0.1 mm 3 mps 750 mmHg 83%
    20:00 +4°C° 0 mm 3 mps 750 mmHg 85%
    21:00 +4°C° 0 mm 3 mps 750 mmHg 87%
    22:00 +3°C° 0 mm 3 mps 750 mmHg 89%
    23:00 +3°C° 0 mm 3 mps 751 mmHg 90%

    20 February, Wednesday

    Time Temperature Precipitation Wind Pressure Humidity
    00:00 +3°C° 0 mm 3 mps 751 mmHg 91%
    01:00 +2°C° 0 mm 3 mps 751 mmHg 93%
    02:00 +2°C° 0 mm 3 mps 751 mmHg 92%
    03:00 +1°C° 0 mm 4 mps 751 mmHg 91%
    04:00 +1°C° 0 mm 4 mps 751 mmHg 90%
    05:00 +3°C° 0 mm 4 mps 751 mmHg 90%
    06:00 +3°C° 0 mm 4 mps 751 mmHg 89%
    07:00 +3°C° 0 mm 4 mps 751 mmHg 89%
    08:00 +2°C° 0 mm 5 mps 751 mmHg 86%
    09:00 +3°C° 0 mm 5 mps 751 mmHg 84%
    10:00 +5°C° 0 mm 5 mps 752 mmHg 81%
    11:00 +6°C° 0 mm 5 mps 752 mmHg 76%
    12:00 +7°C° 0 mm 5 mps 752 mmHg 70%
    13:00 +8°C° 0 mm 5 mps 752 mmHg 64%
    14:00 +8°C° 0 mm 5 mps 752 mmHg 62%
    15:00 +8°C° 0 mm 4 mps 752 mmHg 61%
    16:00 +8°C° 0 mm 4 mps 752 mmHg 59%
    17:00 +7°C° 0 mm 4 mps 752 mmHg 65%
    18:00 +7°C° 0 mm 3 mps 753 mmHg 70%
    19:00 +5°C° 0 mm 3 mps 753 mmHg 76%
    20:00 +5°C° 0 mm 3 mps 753 mmHg 77%
    21:00 +5°C° 0 mm 3 mps 753 mmHg 79%
    22:00 +4°C° 0 mm 3 mps 753 mmHg 81%
    23:00 +4°C° 0 mm 3 mps 753 mmHg 81%

    21 February, Thursday

    Time Temperature Precipitation Wind Pressure Humidity
    00:00 +4°C° 0 mm 3 mps 753 mmHg 82%
    01:00 +4°C° 0 mm 3 mps 753 mmHg 83%
    02:00 +4°C° 0 mm 4 mps 753 mmHg 85%
    03:00 +4°C° 0 mm 4 mps 753 mmHg 88%
    04:00 +4°C° 0 mm 4 mps 753 mmHg 90%
    05:00 +4°C° 0 mm 4 mps 753 mmHg 91%
    06:00 +4°C° 0 mm 4 mps 753 mmHg 92%
    07:00 +4°C° 0 mm 4 mps 753 mmHg 92%
    08:00 +3°C° 0 mm 5 mps 754 mmHg 91%
    09:00 +5°C° 0 mm 5 mps 754 mmHg 89%
    10:00 +6°C° 0 mm 5 mps 754 mmHg 87%
    11:00 +6°C° 0 mm 5 mps 754 mmHg 86%
    12:00 +7°C° 0 mm 5 mps 754 mmHg 84%
    13:00 +7°C° 0 mm 5 mps 754 mmHg 83%
    14:00 +7°C° 1.2 mm 4 mps 754 mmHg 87%
    15:00 +7°C° 1.2 mm 4 mps 754 mmHg 90%
    16:00 +7°C° 1.2 mm 3 mps 754 mmHg 94%
    17:00 +7°C° 1.3 mm 3 mps 754 mmHg 95%
    18:00 +7°C° 1.3 mm 2 mps 755 mmHg 96%
    19:00 +6°C° 1.3 mm 2 mps 755 mmHg 97%
    20:00 +6°C° 0 mm 2 mps 755 mmHg 97%
    21:00 +6°C° 0 mm 2 mps 756 mmHg 97%
    22:00 +6°C° 0 mm 1 mps 756 mmHg 97%
    23:00 +6°C° 0 mm 1 mps 756 mmHg 98%

    22 February, Friday

    Time Temperature Precipitation Wind Pressure Humidity
    00:00 +6°C° 0 mm 1 mps 757 mmHg 98%
    01:00 +7°C° 0 mm 1 mps 757 mmHg 98%
    02:00 +7°C° 0 mm 1 mps 757 mmHg 97%
    03:00 +6°C° 0 mm 1 mps 758 mmHg 96%
    04:00 +6°C° 0 mm 1 mps 758 mmHg 95%
    05:00 +6°C° 0 mm 1 mps 758 mmHg 95%
    06:00 +6°C° 0 mm 1 mps 759 mmHg 94%
    07:00 +5°C° 0 mm 1 mps 759 mmHg 94%
    08:00 +6°C° 0 mm 1 mps 760 mmHg 91%
    09:00 +6°C° 0 mm 0 mps 760 mmHg 88%
    10:00 +7°C° 0 mm 0 mps 761 mmHg 85%
    11:00 +9°C° 0 mm 1 mps 761 mmHg 80%
    12:00 +10°C° 0 mm 1 mps 761 mmHg 74%
    13:00 +11°C° 0 mm 1 mps 761 mmHg 69%
    14:00 +11°C° 0 mm 1 mps 761 mmHg 68%
    15:00 +11°C° 0 mm 1 mps 762 mmHg 68%
    16:00 +11°C° 0 mm 1 mps 762 mmHg 67%
    17:00 +9°C° 0 mm 2 mps 762 mmHg 73%
    18:00 +8°C° 0 mm 2 mps 762 mmHg 78%
    19:00 +8°C° 0 mm 2 mps 763 mmHg 84%
    20:00 +7°C° 0 mm 2 mps 763 mmHg 85%
    21:00 +7°C° 0 mm 2 mps 763 mmHg 86%
    22:00 +6°C° 0 mm 2 mps 764 mmHg 88%
    23:00 +6°C° 0 mm 2 mps 764 mmHg 88%
    Show more